When you browse on this site, cookies collect data to enhance your experience and personalize the content and advertising you see.
Visit our Privacy Policy to learn more. By continuing to use the site, you agree to this use of cookies and data.
  • En España
  • Lista de países
  • Para 7 días
  • Temperatura del agua
  • Mapa Satelital
  • El tiempo en el mapa
  • Informadores
  • user-avatar
    Iniciar sesión

    Tiempo cada hora Wiktoria

    Hoy, 18 Julio, Jueves

    Tiempo Temperatura Precipitaciones Viento Presión Humedad
    00:00 +5°C° 0 mm 3 mps 751 mmHg 96%
    01:00 +5°C° 0 mm 3 mps 751 mmHg 97%
    02:00 +4°C° 0 mm 3 mps 751 mmHg 96%
    03:00 +4°C° 0 mm 3 mps 751 mmHg 96%
    04:00 +3°C° 0 mm 3 mps 751 mmHg 95%
    05:00 +4°C° 0 mm 2 mps 751 mmHg 95%
    06:00 +4°C° 0 mm 2 mps 751 mmHg 95%
    07:00 +5°C° 0 mm 1 mps 752 mmHg 95%
    08:00 +5°C° 0 mm 2 mps 752 mmHg 92%
    09:00 +6°C° 0 mm 2 mps 752 mmHg 90%
    10:00 +8°C° 0 mm 3 mps 753 mmHg 91%
    11:00 +9°C° 0 mm 3 mps 752 mmHg 85%
    12:00 +10°C° 0 mm 3 mps 752 mmHg 79%
    13:00 +11°C° 0 mm 3 mps 751 mmHg 73%
    14:00 +11°C° 0 mm 3 mps 751 mmHg 73%
    15:00 +11°C° 0 mm 3 mps 751 mmHg 74%
    16:00 +11°C° 0 mm 3 mps 750 mmHg 74%
    17:00 +9°C° 0 mm 2 mps 751 mmHg 80%
    18:00 +7°C° 0 mm 2 mps 751 mmHg 86%
    19:00 +7°C° 0 mm 1 mps 752 mmHg 91%
    20:00 +7°C° 0 mm 1 mps 752 mmHg 90%
    21:00 +6°C° 0 mm 2 mps 752 mmHg 89%
    22:00 +6°C° 0 mm 2 mps 752 mmHg 88%
    23:00 +7°C° 0 mm 2 mps 752 mmHg 87%

    Mañana, 19 Julio, Viernes

    Tiempo Temperatura Precipitaciones Viento Presión Humedad
    00:00 +7°C° 0 mm 2 mps 752 mmHg 86%
    01:00 +7°C° 0 mm 2 mps 752 mmHg 84%
    02:00 +8°C° 0 mm 1 mps 752 mmHg 85%
    03:00 +8°C° 0 mm 1 mps 752 mmHg 86%
    04:00 +8°C° 0 mm 1 mps 752 mmHg 87%
    05:00 +8°C° 0 mm 1 mps 752 mmHg 89%
    06:00 +8°C° 0 mm 1 mps 753 mmHg 90%
    07:00 +8°C° 0 mm 1 mps 753 mmHg 92%
    08:00 +9°C° 0 mm 1 mps 754 mmHg 90%
    09:00 +10°C° 0 mm 1 mps 754 mmHg 88%
    10:00 +11°C° 0 mm 1 mps 754 mmHg 86%
    11:00 +11°C° 0 mm 1 mps 754 mmHg 83%
    12:00 +12°C° 0 mm 1 mps 754 mmHg 81%
    13:00 +12°C° 0 mm 1 mps 753 mmHg 78%
    14:00 +12°C° 0 mm 1 mps 753 mmHg 76%
    15:00 +12°C° 0 mm 1 mps 753 mmHg 74%
    16:00 +13°C° 0 mm 1 mps 753 mmHg 72%
    17:00 +12°C° 0 mm 1 mps 754 mmHg 76%
    18:00 +9°C° 0 mm 2 mps 754 mmHg 79%
    19:00 +8°C° 0 mm 2 mps 754 mmHg 83%
    20:00 +9°C° 0 mm 2 mps 754 mmHg 80%
    21:00 +9°C° 0 mm 2 mps 755 mmHg 78%
    22:00 +9°C° 0 mm 3 mps 755 mmHg 76%
    23:00 +9°C° 0 mm 3 mps 754 mmHg 76%

    Pasado mañana, 20 Julio, Sábado

    Tiempo Temperatura Precipitaciones Viento Presión Humedad
    00:00 +9°C° 0 mm 3 mps 754 mmHg 76%
    01:00 +9°C° 0 mm 3 mps 754 mmHg 75%
    02:00 +9°C° 0 mm 3 mps 754 mmHg 76%
    03:00 +9°C° 0 mm 3 mps 754 mmHg 77%
    04:00 +8°C° 0 mm 3 mps 753 mmHg 78%
    05:00 +8°C° 0 mm 3 mps 753 mmHg 80%
    06:00 +7°C° 0 mm 3 mps 753 mmHg 83%
    07:00 +6°C° 0 mm 4 mps 753 mmHg 85%
    08:00 +7°C° 0 mm 4 mps 753 mmHg 84%
    09:00 +8°C° 0 mm 5 mps 753 mmHg 82%
    10:00 +9°C° 0 mm 6 mps 753 mmHg 80%
    11:00 +10°C° 0 mm 6 mps 752 mmHg 77%
    12:00 +11°C° 0 mm 6 mps 751 mmHg 74%
    13:00 +13°C° 0 mm 6 mps 751 mmHg 71%
    14:00 +13°C° 0 mm 6 mps 750 mmHg 72%
    15:00 +13°C° 0 mm 5 mps 750 mmHg 73%
    16:00 +13°C° 0 mm 4 mps 749 mmHg 73%
    17:00 +12°C° 0 mm 4 mps 749 mmHg 75%
    18:00 +11°C° 0 mm 4 mps 749 mmHg 77%
    19:00 +10°C° 0 mm 4 mps 749 mmHg 78%
    20:00 +9°C° 0 mm 5 mps 749 mmHg 77%
    21:00 +9°C° 0 mm 5 mps 749 mmHg 76%
    22:00 +9°C° 0 mm 6 mps 749 mmHg 75%
    23:00 +8°C° 0 mm 6 mps 748 mmHg 77%

    21 Julio, Domingo

    Tiempo Temperatura Precipitaciones Viento Presión Humedad
    00:00 +8°C° 0 mm 6 mps 747 mmHg 79%
    01:00 +7°C° 0 mm 6 mps 747 mmHg 80%
    02:00 +7°C° 0 mm 5 mps 747 mmHg 81%
    03:00 +7°C° 0 mm 4 mps 747 mmHg 81%
    04:00 +7°C° 0 mm 4 mps 747 mmHg 81%
    05:00 +8°C° 0 mm 3 mps 747 mmHg 80%
    06:00 +8°C° 0 mm 3 mps 747 mmHg 79%
    07:00 +8°C° 0 mm 3 mps 748 mmHg 78%
    08:00 +8°C° 0 mm 3 mps 748 mmHg 78%
    09:00 +9°C° 0 mm 2 mps 749 mmHg 79%
    10:00 +9°C° 0 mm 2 mps 749 mmHg 79%
    11:00 +9°C° 0.1 mm 2 mps 749 mmHg 81%
    12:00 +9°C° 0.1 mm 2 mps 748 mmHg 83%
    13:00 +9°C° 0.1 mm 2 mps 748 mmHg 84%
    14:00 +10°C° 0 mm 2 mps 748 mmHg 84%
    15:00 +10°C° 0 mm 2 mps 748 mmHg 83%
    16:00 +12°C° 0 mm 2 mps 748 mmHg 82%
    17:00 +9°C° 0 mm 2 mps 748 mmHg 86%
    18:00 +8°C° 0 mm 2 mps 749 mmHg 89%
    19:00 +8°C° 0 mm 1 mps 749 mmHg 93%
    20:00 +7°C° 0 mm 1 mps 749 mmHg 94%
    21:00 +7°C° 0 mm 1 mps 750 mmHg 94%
    22:00 +7°C° 0 mm 1 mps 750 mmHg 94%
    23:00 +6°C° 0 mm 1 mps 750 mmHg 95%

    22 Julio, Lunes

    Tiempo Temperatura Precipitaciones Viento Presión Humedad
    00:00 +6°C° 0 mm 1 mps 750 mmHg 95%
    01:00 +6°C° 0 mm 1 mps 750 mmHg 95%
    02:00 +6°C° 0 mm 1 mps 750 mmHg 95%
    03:00 +6°C° 0 mm 1 mps 750 mmHg 95%
    04:00 +5°C° 0 mm 1 mps 749 mmHg 95%
    05:00 +5°C° 0 mm 1 mps 750 mmHg 96%
    06:00 +4°C° 0 mm 2 mps 750 mmHg 96%
    07:00 +4°C° 0 mm 2 mps 750 mmHg 96%
    08:00 +6°C° 0 mm 2 mps 750 mmHg 94%
    09:00 +8°C° 0 mm 2 mps 751 mmHg 92%
    10:00 +9°C° 0 mm 3 mps 751 mmHg 89%
    11:00 +10°C° 0 mm 3 mps 750 mmHg 82%
    12:00 +12°C° 0 mm 4 mps 749 mmHg 75%
    13:00 +13°C° 0 mm 4 mps 749 mmHg 68%
    14:00 +13°C° 0 mm 4 mps 749 mmHg 69%
    15:00 +13°C° 0 mm 3 mps 748 mmHg 71%
    16:00 +13°C° 0 mm 3 mps 748 mmHg 72%
    17:00 +11°C° 0 mm 3 mps 748 mmHg 76%
    18:00 +10°C° 0 mm 3 mps 748 mmHg 81%
    19:00 +8°C° 0 mm 3 mps 748 mmHg 85%
    20:00 +8°C° 0 mm 3 mps 748 mmHg 87%
    21:00 +7°C° 0 mm 3 mps 748 mmHg 88%
    22:00 +7°C° 0 mm 3 mps 748 mmHg 89%
    23:00 +5°C° 0 mm 3 mps 748 mmHg 90%

    23 Julio, Martes

    Tiempo Temperatura Precipitaciones Viento Presión Humedad
    00:00 +5°C° 0 mm 3 mps 748 mmHg 90%
    01:00 +5°C° 0 mm 3 mps 747 mmHg 91%
    02:00 +5°C° 0 mm 4 mps 747 mmHg 90%
    03:00 +5°C° 0 mm 4 mps 747 mmHg 89%
    04:00 +5°C° 0 mm 4 mps 746 mmHg 88%
    05:00 +5°C° 0 mm 4 mps 746 mmHg 83%
    06:00 +5°C° 0 mm 4 mps 747 mmHg 79%
    07:00 +5°C° 0 mm 4 mps 747 mmHg 74%
    08:00 +6°C° 0.1 mm 4 mps 747 mmHg 75%
    09:00 +7°C° 0.1 mm 3 mps 748 mmHg 75%
    10:00 +8°C° 0.1 mm 3 mps 748 mmHg 76%
    11:00 +8°C° 0.5 mm 3 mps 748 mmHg 80%
    12:00 +8°C° 0.5 mm 3 mps 747 mmHg 84%
    13:00 +9°C° 0.5 mm 3 mps 747 mmHg 88%
    14:00 +9°C° 0.3 mm 3 mps 747 mmHg 86%
    15:00 +9°C° 0.3 mm 3 mps 747 mmHg 85%
    16:00 +9°C° 0.3 mm 3 mps 747 mmHg 83%
    17:00 +9°C° 0.3 mm 3 mps 748 mmHg 85%
    18:00 +8°C° 0.3 mm 3 mps 748 mmHg 87%
    19:00 +7°C° 0.3 mm 3 mps 748 mmHg 90%
    20:00 +5°C° 0.6 mm 4 mps 749 mmHg 91%
    21:00 +5°C° 0.6 mm 4 mps 749 mmHg 93%
    22:00 +4°C° 0.6 mm 4 mps 749 mmHg 94%
    23:00 +4°C° 0.1 mm 4 mps 749 mmHg 95%
    Mostrar más